Weather Roundup
Issued by NWS Springfield, MO

Home | Current Version | Previous Version | Text Only | Print | Product List | Glossary On
Versions: 1 2 3 4 5 6 7 8 9 10 11 12 13 14 15 16 17 18 19 20 21 22 23 24 25 26 27 28 29 30 31 32 33 34 35 36 37 38 39 40 41 42 43 44 45 46 47 48 49 50
000
NZUS99 KSGF 210257
HRRSGF

HOURLY WEATHER
NATIONAL WEATHER SERVICE SPRINGFIELD MO
1000 PM CDT FRI OCT 20 2017

......SGF CWA......

CITY           SKY/WX    TMP DP  RH WIND       PRES   REMARKS
SPRINGFIELD    CLEAR     65  59  81 S18G30    29.97F
JOPLIN         LGT RAIN  66  59  78 S15G23    29.93S
WEST PLAINS    CLOUDY    65  56  72 S6        30.07F
ROLLA          MOCLDY    65  54  67 S14       30.02S

......SURROUNDING SGF CWA......

CITY           SKY/WX    TMP DP  RH WIND       PRES   REMARKS
CHANUTE        CLEAR     67  59  75 S17       29.88R
PARSONS        CLEAR     68  58  70 S10G22    29.90R
COFFEYVILLE    CLEAR     67  59  75 S13G23    29.89R
EMPORIA        CLOUDY    69  57  65 S25G43    29.81R
HARRISON AR    CLOUDY    63  59  87 SE14G23   30.01F

......KANSAS AND MISSOURI......

CITY           SKY/WX    TMP DP  RH WIND       PRES   REMARKS
KANSAS CTY INT PTCLDY    67  56  67 S17G29    29.85S
SEDALIA        CLEAR     66  59  78 S18       29.95S
ST JOSEPH      LGT RAIN  67  58  72 S15G22    29.83S
ST LOUIS       CLOUDY    69  51  52 SE13      30.05R
WICHITA        PTCLDY    71  62  73 S21G31    29.77S
TOPEKA         MOCLDY    70  59  68 SE21G29   29.80F
OLATHE         CLEAR     64  56  75 S15G23    29.87R

......TENNESSEE......

CITY           SKY/WX    TMP DP  RH WIND       PRES   REMARKS
MEMPHIS        NOT AVBL
NASHVILLE      PTCLDY    58  50  75 S5        30.17F

......ARKANSAS.......

CITY           SKY/WX    TMP DP  RH WIND       PRES   REMARKS
FAYETTEVILLE   MOCLDY    66  58  75 SE14G20   29.98F
FT SMITH       PTCLDY    68  60  75 E8        29.99R
LITTLE ROCK    MOCLDY    60  57  89 SE5       30.06S

......OKLAHOMA.......

CITY           SKY/WX    TMP DP  RH WIND       PRES   REMARKS
TULSA          CLOUDY    69  61  75 S15G23    29.88S
MCALESTER      PTCLDY    73  59  61 SE12G23   29.94S
OKLAHOMA CITY  MOCLDY    72  63  73 S14G23    29.85S

......IOWA............

CITY           SKY/WX    TMP DP  RH WIND       PRES   REMARKS
DES MOINES     NOT AVBL
QUAD CITIES    CLOUDY    68  47  46 S18G25    29.95F

......ILLINOIS........

CITY           SKY/WX    TMP DP  RH WIND       PRES   REMARKS
QUINCY         NOT AVBL
CHICAGO        CLOUDY    65  48  54 S12       30.05R



USA.gov is the U.S. government's official web portal to all federal, state and local government web resources and services.